This is the latest recevied weather packets stored in our database for station/object N6SPP. If no packets are shown the sender has not sent any weather packets the latest 10 day(s).
| Time | Temp. | Humidity | Pressure | Rain* | Wind** | Luminosity | Snow |
|---|---|---|---|---|---|---|---|
| 1777641924 | 12.78° C | 77% | 1014.9 hPa | 0 mm | - | 11 W/m² | - |
| 1777641619 | 12.78° C | 77% | 1015.2 hPa | 0 mm | - | 8 W/m² | - |
| 1777641314 | 12.78° C | 77% | 1014.9 hPa | 0 mm | - | 5 W/m² | - |
| 1777641010 | 12.78° C | 76% | 1015 hPa | 0 mm | - | 3 W/m² | - |
| 1777640706 | 13.33° C | 75% | 1015 hPa | 0 mm | - | 1 W/m² | - |
| 1777640403 | 13.33° C | 74% | 1014.8 hPa | 0 mm | - | 1 W/m² | - |
| 1777640100 | 13.89° C | 73% | 1014.8 hPa | 0 mm | - | 0 W/m² | - |
| 1777639796 | 13.89° C | 72% | 1014.6 hPa | 0 mm | - | 0 W/m² | - |
| 1777639494 | 13.89° C | 71% | 1014.6 hPa | 0 mm | - | 0 W/m² | - |
| 1777639191 | 13.89° C | 69% | 1014.5 hPa | 0 mm | - | 0 W/m² | - |
| 1777638887 | 13.89° C | 71% | 1014.5 hPa | 0 mm | - | 0 W/m² | - |
| 1777638583 | 13.89° C | 72% | 1014.7 hPa | 0 mm | - | 0 W/m² | - |
| 1777638280 | 13.89° C | 72% | 1014.7 hPa | 0 mm | - | 0 W/m² | - |
| 1777637976 | 13.89° C | 71% | 1014.4 hPa | 0 mm | - | 0 W/m² | - |
| 1777637672 | 14.44° C | 69% | 1014.6 hPa | 0 mm | - | 0 W/m² | - |
| 1777637370 | 15° C | 68% | 1014.7 hPa | 0 mm | - | 0 W/m² | - |
| 1777637066 | 15.56° C | 64% | 1014.3 hPa | 0 mm | - | 0 W/m² | - |
| 1777636762 | 15.56° C | 64% | 1014.4 hPa | 0 mm | - | 0 W/m² | - |
| 1777636458 | 15.56° C | 63% | 1014.4 hPa | 0 mm | - | 0 W/m² | - |
| 1777636154 | 15.56° C | 62% | 1014.4 hPa | 0 mm | - | 0 W/m² | - |
| 1777635849 | 15.56° C | 63% | 1014.2 hPa | 0 mm | - | 0 W/m² | - |
| 1777635546 | 15.56° C | 63% | 1014.1 hPa | 0 mm | - | 0 W/m² | - |
| 1777635242 | 15.56° C | 62% | 1014.1 hPa | 0 mm | - | 0 W/m² | - |
| 1777634939 | 15.56° C | 62% | 1014.2 hPa | 0 mm | - | 0 W/m² | - |
| 1777634636 | 15.56° C | 62% | 1014 hPa | 0 mm | - | 0 W/m² | - |
* Rain latest hour (hover to see other rain measurements)
** Current wind speed in m/s (hover to see current wind gust speed)